Location: Newark
(50.0306°N, 2.3272°E)
Time: 23:35:02
(UTC+00:00)

Vanguard 1 - Pass Details

Date: 14 December 2019
Orbit: 651 x 3832 km, 34.2° (Epoch: 21 January)

Event Time Altitude Azimuth Distance (km) Brightness Sun altitude
Exits shadow 02:15:07 32° 170° (S) 5,269 13.5 -50.4°
Maximum altitude 02:20:33 35° 148° (SSE) 5,119 13.5 -49.6°
Drops below altitude 10° 02:38:28 10° 93° (E) 6,326 14.6 -47.0°
Sets 02:43:23 0° 86° (E) 7,010 15.1 -46.2°
